Miscellaneous Local Product
Issued by NWS Hastings, NE

Home | Current Version | Previous Version | Text Only | Print | Product List | Glossary Off
Versions: 1 2 3 4 5 6 7 8 9 10 11 12 13 14 15 16 17 18 19 20 21 22 23 24 25 26 27 28 29 30 31 32 33 34 35 36 37 38 39 40 41 42 43 44 45 46 47 48 49 50

000
AXUS43 KGID 172102
MISGRI

GID CWA HOURLY WEATHER ROUNDUP
NATIONAL WEATHER SERVICE HASTINGS NE
400 PM CDT FRI APR 17 2015

NOTE: "FAIR" INDICATES FEW OR NO CLOUDS BELOW 12,000 FEET WITH NO
SIGNIFICANT WEATHER AND/OR OBSTRUCTIONS TO VISIBILITY.

...SOUTH CENTRAL NEBRASKA...

CITY           SKY/WX    TMP DP  RH WIND       PRES   REMARKS
GRAND ISLAND   PTSUNNY   67  56  67 E10       30.02F
HASTINGS       PTSUNNY   67  55  65 SE14G25   29.99F
KEARNEY        CLOUDY    64  55  72 SE8       30.01F
ORD            LGT RAIN  59  56  89 NE5       30.04F FOG
YORK           PTSUNNY   72  55  56 E14G22    30.01F
AURORA         CLOUDY    70  57  63 E12       30.01F
LEXINGTON      CLOUDY    63  59  86 E10       30.02F
HOLDREGE       CLOUDY    66  53  62 SE12      30.00F
HEBRON         CLOUDY    66  58  74 E9        30.00F

...NEBRASKA PANHANDLE...

CITY           SKY/WX    TMP DP  RH WIND       PRES   REMARKS
CHADRON        CLOUDY    47  44  90 N14       30.11F
ALLIANCE       LGT RAIN  46  45  96 NE18      30.05F FOG
SCOTTSBLUFF    LGT RAIN  48  47  96 NE29G38   30.03F FOG
SIDNEY         LGT RAIN  51  49  92 SE15      30.01S

...WESTERN AND NORTH CENTRAL NEBRASKA...

CITY           SKY/WX    TMP DP  RH WIND       PRES   REMARKS
VALENTINE      CLOUDY    54  50  86 NE10      30.10F
AINSWORTH      DRIZZLE   55  53  94 NE12      30.10S
ONEILL         CLOUDY    64  51  61 N6        30.08F
BROKEN BOW     CLOUDY    60  56  86 E13       30.04F
IMPERIAL       LGT RAIN  58  52  80 SE15      29.99F
NORTH PLATTE   CLOUDY    60  54  80 SE14      30.02F
MCCOOK         CLOUDY    66  52  60 SE14      29.98F

...EASTERN NEBRASKA...

CITY           SKY/WX    TMP DP  RH WIND       PRES   REMARKS
NORFOLK        NOT AVBL
SO SIOUX CITY  CLOUDY    76  47  35 VRB3      30.03F
TEKAMAH        CLOUDY    77  50  38 E8        30.00F
COLUMBUS       CLOUDY    72  52  49 E9        30.03F
ALBION         CLOUDY    69  51  52 E7        30.03F
OMAHA EPPLEY   CLOUDY    75  51  43 E7        30.00F
OFFUTT AFB     CLOUDY    75  54  46 SE8       29.99F
MILLARD        CLOUDY    76  55  47 S3        30.00F
LINCOLN        CLOUDY    73  54  51 E10       30.00F
NEBRASKA CITY  CLOUDY    74  45  35 SE9       29.99F
BEATRICE       CLOUDY    69  56  62 E6        29.99F
FALLS CITY     CLOUDY    74  54  49 E9        29.96F

...NORTHERN KANSAS...

CITY           SKY/WX    TMP DP  RH WIND       PRES   REMARKS
GOODLAND       MOSUNNY   65  45  48 SE18G24   29.95F
HILL CITY      MOSUNNY   69  50  50 SE10      29.95F
NORTON         CLOUDY    68  52  56 E10       29.96F
PHILLIPSBURG   PTSUNNY   73  54  49 E13       29.97F
SMITH CENTER   PTSUNNY   68  54  60 SE15      29.99F
BELOIT         PTSUNNY   70  52  52 SE7       29.96F
HAYS           MOSUNNY   72  50  46 SE12G21   29.95F
RUSSELL        SUNNY     73  53  49 SE10      29.94F
CONCORDIA      PTSUNNY   71  55  56 E10       29.96F
SALINA         CLOUDY    72  56  57 CALM      29.95F
TOPEKA         CLOUDY    72  59  63 SE6       29.97F



USA.gov is the U.S. government's official web portal to all federal, state and local government web resources and services.